Voltar ao catálogo

CZ-6A DEB

AtivoSSO
NORAD 54900·DEBRIS·🇨🇳 China

Lançado Nov 11, 2022 de Taiyuan Satellite Launch Center

Loading…

Próximas Passagens (próximas 24 horas)

TLE

AtualizadoSource: Space-Track

Época: Sep 14, 2026, 09:36 UTC

1 54900U 22151QM  26257.40054573  .00000347  00000-0  21656-3 0  9996
2 54900  98.8594 252.2884 0093744 142.3740 218.4037 14.08920275194504

Acompanhe CZ-6A DEB em tempo real com AllMySat

Download on the App Store